Location: Unspecified
(48.8656°N, 0.0000°E)
Time: 17:58:32
(UTC+00:00)

Vanguard 1 Rocket - Pass Details

Date: 24 June 2019
Orbit: 651 x 4225 km, 34.3° (Epoch: 16 July)

Event Time Altitude Azimuth Distance (km) Brightness Sun altitude
Rises 20:01:01 0° 262° (W) 6,492 12.5 0.0°
Reaches altitude 10° 20:06:41 10° 254° (WSW) 4,823 11.7 -0.7°
Maximum altitude 20:16:23 29° 201° (SSW) 2,423 9.4 -1.9°
Drops below altitude 10° 20:22:17 10° 143° (SE) 2,859 9.3 -2.7°
Enters shadow 20:23:54 - 135° (SE) 3,287 9.6 -2.9°
Sets 20:24:44 0° 131° (SE) 3,534 - -3.0°
